Weather History for KPPQ - January, 2011

Change the Weather History Date:

Sunday, January 2, 2011

  Actual Average (KUIN) Record (KUIN)
Temperature  
Mean Temperature 26 °F 27 °F  
Max Temperature 33 °F 34 °F 68 °F (2004)
Min Temperature 19 °F 19 °F -11 °F (1979)
Degree Days  
Heating Degree Days 39 38  
Month to date heating degree days 76  
Since 1 July heating degree days 2267  
Cooling Degree Days 0 0  
Month to date cooling degree days 0  
Year to date cooling degree days 0  
Moisture  
Dew Point 12 °F    
Average Humidity 57    
Maximum Humidity 68    
Minimum Humidity 44    
Precipitation  
Precipitation 0.00 in 0.05 in 1.32 in (1951)
Month to date precipitation 0.11  
Year to date precipitation 0.11  
Sea Level Pressure  
Sea Level Pressure 30.25 in    
Wind  
Wind Speed 8 mph (SW)    
Max Wind Speed 15 mph    
Max Gust Speed 18 mph    
Visibility 10 miles    
Events      
T = Trace of Precipitation, MM = Missing Value Source: NWS Daily Summary

Daily Weather History Graph

Daily Weather History Graph

Search for Another Location

Airport or City:

Trip Planner

Search our weather history database for the weather conditions in past years. The results will help you decide how hot, cold, wet, or windy it might be!

Date:

Astronomy

Jan. 02, 2011 Rise Set
Actual Time 7:24 AM CST 4:50 PM CST
Civil Twilight 6:53 AM CST 5:20 PM CST
Nautical Twilight 6:20 AM CST 5:54 PM CST
Astronomical Twilight 5:47 AM CST 6:27 PM CST
Moon 5:57 AM CST 3:22 PM CST
Length of Visible Light 10h 26m
Length of Day
9h 26m
Waning Crescent, 3% of the Moon is Illuminated
Jan 2
Waning Crescent
Jan 4
New
Jan 12
First Quarter
Jan 19
Full
Jan 26
Last Quarter

Hourly Weather History & Observations

Time (CST) Temp. Windchill Dew Point Humidity Pressure Visibility Wind Dir Wind Speed Gust Speed Precip Events Conditions
12:07 AM 23.0 °F 13.9 °F 10.4 °F 59% 30.24 in 10.0 mi West 8.1 mph - N/A   Clear
12:27 AM 23.0 °F 13.1 °F 10.4 °F 59% 30.23 in 10.0 mi WNW 9.2 mph - N/A   Clear
12:47 AM 21.2 °F 11.7 °F 8.6 °F 58% 30.23 in 10.0 mi WNW 8.1 mph - N/A   Clear
1:07 AM 21.2 °F 11.7 °F 8.6 °F 58% 30.23 in 10.0 mi WNW 8.1 mph - N/A   Clear
1:27 AM 21.2 °F 11.7 °F 8.6 °F 58% 30.23 in 10.0 mi WNW 8.1 mph - N/A   Clear
1:47 AM 21.2 °F 10.9 °F 8.6 °F 58% 30.23 in 10.0 mi WNW 9.2 mph - N/A   Clear
2:07 AM 21.2 °F 12.6 °F 8.6 °F 58% 30.25 in 10.0 mi WNW 6.9 mph - N/A   Clear
2:27 AM 21.2 °F 13.6 °F 8.6 °F 58% 30.25 in 10.0 mi WNW 5.8 mph - N/A   Clear
2:47 AM 19.4 °F 12.8 °F 8.6 °F 63% 30.25 in 10.0 mi West 4.6 mph - N/A   Clear
3:07 AM 19.4 °F 14.3 °F 10.4 °F 68% 30.25 in 10.0 mi West 3.5 mph - N/A   Clear
3:27 AM 19.4 °F 12.8 °F 10.4 °F 68% 30.25 in 10.0 mi West 4.6 mph - N/A   Clear
3:47 AM 19.4 °F 12.8 °F 10.4 °F 68% 30.25 in 10.0 mi West 4.6 mph - N/A   Clear
4:07 AM 19.4 °F 12.8 °F 10.4 °F 68% 30.25 in 10.0 mi WSW 4.6 mph - N/A   Clear
4:27 AM 19.4 °F 11.5 °F 10.4 °F 68% 30.26 in 10.0 mi WSW 5.8 mph - N/A   Clear
4:47 AM 19.4 °F 11.5 °F 10.4 °F 68% 30.26 in 10.0 mi WSW 5.8 mph - N/A   Clear
5:07 AM 19.4 °F 12.8 °F 10.4 °F 68% 30.26 in 10.0 mi WSW 4.6 mph - N/A   Clear
5:28 AM 19.4 °F 12.8 °F 10.4 °F 68% 30.26 in 10.0 mi SW 4.6 mph - N/A   Clear
5:47 AM 19.4 °F 12.8 °F 10.4 °F 68% 30.27 in 10.0 mi WSW 4.6 mph - N/A   Clear
6:07 AM 19.4 °F 12.8 °F 10.4 °F 68% 30.27 in 10.0 mi WSW 4.6 mph - N/A   Clear
6:28 AM 19.4 °F 11.5 °F 10.4 °F 68% 30.28 in 10.0 mi WSW 5.8 mph - N/A   Clear
6:47 AM 19.4 °F 12.8 °F 10.4 °F 68% 30.28 in 10.0 mi SW 4.6 mph - N/A   Clear
7:07 AM 19.4 °F 12.8 °F 10.4 °F 68% 30.28 in 10.0 mi SW 4.6 mph - N/A   Clear
7:27 AM 19.4 °F 11.5 °F 10.4 °F 68% 30.28 in 10.0 mi SW 5.8 mph - N/A   Clear
7:47 AM 19.4 °F 11.5 °F 10.4 °F 68% 30.28 in 10.0 mi SW 5.8 mph - N/A   Clear
8:07 AM 19.4 °F 8.6 °F 10.4 °F 68% 30.29 in 10.0 mi SW 9.2 mph - N/A   Clear
8:27 AM 19.4 °F 8.6 °F 10.4 °F 68% 30.30 in 10.0 mi WSW 9.2 mph - N/A   Clear
8:47 AM 21.2 °F 10.9 °F 10.4 °F 63% 30.30 in 10.0 mi SW 9.2 mph - N/A   Clear
9:07 AM 21.2 °F 10.9 °F 10.4 °F 63% 30.31 in 10.0 mi WSW 9.2 mph - N/A   Clear
9:27 AM 23.0 °F 13.1 °F 10.4 °F 59% 30.31 in 10.0 mi WSW 9.2 mph - N/A   Clear
9:47 AM 23.0 °F 13.1 °F 10.4 °F 59% 30.32 in 10.0 mi SW 9.2 mph - N/A   Clear
10:07 AM 24.8 °F 14.6 °F 10.4 °F 54% 30.33 in 10.0 mi SW 10.4 mph - N/A   Clear
10:27 AM 26.6 °F 18.2 °F 8.6 °F 47% 30.32 in 10.0 mi SW 8.1 mph - N/A   Clear
10:47 AM 26.6 °F 18.2 °F 8.6 °F 47% 30.31 in 10.0 mi SW 8.1 mph - N/A   Clear
11:07 AM 28.4 °F 19.1 °F 10.4 °F 47% 30.30 in 10.0 mi SSW 10.4 mph - N/A   Clear
11:47 AM 28.4 °F 19.7 °F 10.4 °F 47% 30.28 in 10.0 mi WSW 9.2 mph - N/A   Clear
12:07 PM 30.2 °F 21.3 °F 10.4 °F 44% 30.27 in 10.0 mi SW 10.4 mph - N/A   Clear
12:27 PM 30.2 °F 21.3 °F 12.2 °F 47% 30.26 in 10.0 mi SW 10.4 mph 16.1 mph N/A   Clear
12:47 PM 30.2 °F 22.6 °F 14.0 °F 51% 30.25 in 10.0 mi SSW 8.1 mph - N/A   Clear
1:07 PM 32.0 °F 23.6 °F 12.2 °F 44% 30.24 in 10.0 mi SSW 10.4 mph - N/A   Clear
1:27 PM 32.0 °F 23.6 °F 14.0 °F 48% 30.24 in 10.0 mi SSW 10.4 mph - N/A   Clear
1:47 PM 33.8 °F 25.3 °F 15.8 °F 48% 30.23 in 10.0 mi SSW 11.5 mph - N/A   Clear
2:07 PM 33.8 °F 24.8 °F 14.0 °F 44% 30.23 in 10.0 mi SSW 12.7 mph 16.1 mph N/A   Clear
2:27 PM 33.8 °F 25.3 °F 15.8 °F 48% 30.22 in 10.0 mi SSW 11.5 mph 17.3 mph N/A   Clear
2:47 PM 33.8 °F 26.4 °F 15.8 °F 48% 30.23 in 10.0 mi SW 9.2 mph - N/A   Clear
3:07 PM 33.8 °F 24.3 °F 15.8 °F 48% 30.22 in 10.0 mi SSW 13.8 mph 18.4 mph N/A   Clear
3:27 PM 33.8 °F 23.9 °F 15.8 °F 48% 30.21 in 10.0 mi SSW 15.0 mph - N/A   Clear
3:47 PM 33.8 °F 25.8 °F 15.8 °F 48% 30.21 in 10.0 mi South 10.4 mph 16.1 mph N/A   Clear
4:07 PM 33.8 °F 25.3 °F 15.8 °F 48% 30.21 in 10.0 mi SSW 11.5 mph - N/A   Clear
4:27 PM 33.8 °F 25.8 °F 15.8 °F 48% 30.21 in 10.0 mi SSW 10.4 mph - N/A   Clear
4:47 PM 33.8 °F 27.0 °F 15.8 °F 48% 30.21 in 10.0 mi South 8.1 mph - N/A   Clear
5:07 PM 32.0 °F 24.8 °F 17.6 °F 55% 30.21 in 10.0 mi South 8.1 mph - N/A   Clear
5:27 PM 32.0 °F 25.6 °F 17.6 °F 55% 30.21 in 10.0 mi South 6.9 mph - N/A   Clear
5:47 PM 32.0 °F 25.6 °F 15.8 °F 51% 30.22 in 10.0 mi South 6.9 mph - N/A   Clear
6:07 PM 30.2 °F 22.6 °F 17.6 °F 60% 30.22 in 10.0 mi South 8.1 mph - N/A   Clear
6:27 PM 30.2 °F 22.6 °F 17.6 °F 60% 30.21 in 10.0 mi South 8.1 mph - N/A   Clear
6:47 PM 30.2 °F 23.4 °F 17.6 °F 60% 30.21 in 10.0 mi South 6.9 mph - N/A   Clear
7:08 PM 30.2 °F 23.4 °F 17.6 °F 60% 30.20 in 10.0 mi South 6.9 mph - N/A   Clear
7:27 PM 30.2 °F 22.6 °F 15.8 °F 55% 30.20 in 10.0 mi South 8.1 mph - N/A   Clear
7:47 PM 30.2 °F 23.4 °F 15.8 °F 55% 30.20 in 10.0 mi South 6.9 mph - N/A   Clear
8:07 PM 30.2 °F 21.9 °F 15.8 °F 55% 30.20 in 10.0 mi SSW 9.2 mph - N/A   Clear
8:27 PM 30.2 °F 22.6 °F 15.8 °F 55% 30.20 in 10.0 mi South 8.1 mph - N/A   Clear
8:47 PM 30.2 °F 22.6 °F 15.8 °F 55% 30.20 in 10.0 mi South 8.1 mph - N/A   Clear
9:07 PM 30.2 °F 21.3 °F 15.8 °F 55% 30.20 in 10.0 mi South 10.4 mph - N/A   Clear
9:27 PM 30.2 °F 21.9 °F 15.8 °F 55% 30.20 in 10.0 mi South 9.2 mph - N/A   Clear
9:47 PM 30.2 °F 22.6 °F 15.8 °F 55% 30.19 in 10.0 mi South 8.1 mph - N/A   Clear
10:07 PM 30.2 °F 22.6 °F 15.8 °F 55% 30.19 in 10.0 mi South 8.1 mph - N/A   Clear
10:27 PM 30.2 °F 23.4 °F 15.8 °F 55% 30.19 in 10.0 mi South 6.9 mph - N/A   Clear
10:47 PM 30.2 °F 22.6 °F 15.8 °F 55% 30.19 in 10.0 mi SSW 8.1 mph - N/A   Clear
11:07 PM 30.2 °F 21.9 °F 15.8 °F 55% 30.19 in 10.0 mi SSW 9.2 mph - N/A   Clear
11:27 PM 30.2 °F 22.6 °F 15.8 °F 55% 30.18 in 10.0 mi South 8.1 mph - N/A   Clear
11:47 PM 30.2 °F 23.4 °F 15.8 °F 55% 30.18 in 10.0 mi South 6.9 mph - N/A   Clear